Tracking 19847 objects as of 16-Sep-2019
HD Live streaming from Space Station
objects crossing your sky now

RADCAL

Track RADCAL now!
10-day predictions
RADCAL is classified as:


NORAD ID: 22698
Int'l Code: 1993-041A
Perigee: 757.7 km
Apogee: 884.3 km
Inclination: 89.6 °
Period: 101.2 minutes
Semi major axis: 7192 km
RCS: 0.589 m2 (medium)
Launch date: June 25, 1993
Source: United States (US)
Launch site: AIR FORCE WESTERN TEST RANGE (AFWTR)

This spacecraft was used to help calibrate radar target cross section data.
aabbcc
Your satellite tracking list
Your tracking list is empty




NASA's NSSDC Master Catalog

Two Line Element Set (TLE):
1 22698U 93041A   19258.93145700 +.00000042 +00000-0 +12740-4 0  9992
2 22698 089.5755 192.3962 0087973 331.6158 028.0256 14.23403367361300
Source of the keplerian elements: AFSPC